| time (UTC) | temp F | wind direction | speed MPH | gust MPH | rain 1hr in | rain 24hr in | rain mn in | humidity % | barometer mb |
| 20260506062404 | 61 | 233 | 2.0 | 6.0 | 0.00 | 0.00 | 0.00 | 74 | 1006.0 |
| 20260506061904 | 61 | 160 | 2.0 | 7.0 | 0.00 | 0.00 | 0.00 | 75 | 1006.1 |
| 20260506061404 | 60 | 214 | 4.0 | 9.0 | 0.00 | 0.00 | 0.00 | 75 | 1006.1 |
| 20260506060904 | 60 | 181 | 3.0 | 7.0 | 0.00 | 0.00 | 0.00 | 76 | 1006.1 |
| 20260506060404 | 60 | 191 | 3.0 | 6.0 | 0.00 | 0.00 | 0.00 | 76 | 1006.0 |
| 20260506051404 | 56 | 53 | 2.0 | 3.0 | 0.00 | 0.00 | 0.00 | 82 | 1005.7 |
| 20260506050904 | 56 | 56 | 1.0 | 3.0 | 0.00 | 0.00 | 0.00 | 83 | 1005.7 |
| 20260506044404 | 55 | 67 | 1.0 | 3.0 | 0.00 | 0.00 | 0.00 | 83 | 1005.6 |
| 20260506043905 | 54 | 67 | 1.0 | 2.0 | 0.00 | 0.00 | 0.00 | 83 | 1005.5 |
| 20260506043404 | 54 | 68 | 0.0 | 2.0 | 0.00 | 0.00 | 0.00 | 83 | 1005.4 |
| 20260506042904 | 54 | 68 | 1.0 | 3.0 | 0.00 | 0.00 | 0.00 | 83 | 1005.4 |
| 20260506042404 | 54 | 68 | 2.0 | 3.0 | 0.00 | 0.00 | 0.00 | 82 | 1005.3 |
| 20260506041404 | 54 | 68 | 1.0 | 2.0 | 0.00 | 0.00 | 0.00 | 81 | 1005.4 |
| 20260506040904 | 54 | 68 | 0.0 | 2.0 | 0.00 | 0.00 | 0.00 | 81 | 1005.3 |
| 20260506035904 | 55 | 68 | 2.0 | 3.0 | 0.00 | 0.00 | 0.00 | 80 | 1005.3 |
| 20260506034905 | 55 | 68 | 1.0 | 3.0 | 0.00 | 0.00 | 0.00 | 79 | 1005.2 |
| 20260506034404 | 55 | 68 | 0.0 | 2.0 | 0.00 | 0.00 | 0.00 | 78 | 1005.1 |
| 20260506033904 | 55 | 68 | 1.0 | 3.0 | 0.00 | 0.00 | 0.00 | 78 | 1005.2 |
| 20260506033404 | 56 | 68 | 0.0 | 0.0 | 0.00 | 0.00 | 0.00 | 77 | 1005.1 |
| 20260506032904 | 56 | 68 | 0.0 | 0.0 | 0.00 | 0.00 | 0.00 | 77 | 1005.1 |
| 20260506032405 | 56 | 68 | 0.0 | 0.0 | 0.00 | 0.00 | 0.00 | 77 | 1005.0 |
| 20260506031405 | 56 | 68 | 0.0 | 3.0 | 0.00 | 0.00 | 0.00 | 77 | 1004.9 |
| 20260506030904 | 56 | 68 | 0.0 | 3.0 | 0.00 | 0.00 | 0.00 | 77 | 1004.8 |
| 20260506025904 | 57 | 67 | 1.0 | 2.0 | 0.00 | 0.00 | 0.00 | 76 | 1004.7 |
| 20260506025404 | 57 | 67 | 1.0 | 3.0 | 0.00 | 0.00 | 0.00 | 75 | 1004.7 |
| 20260506024905 | 57 | 67 | 1.0 | 2.0 | 0.00 | 0.00 | 0.00 | 75 | 1004.8 |
| 20260506023904 | 57 | 80 | 3.0 | 7.0 | 0.00 | 0.00 | 0.00 | 74 | 1004.7 |
| 20260506023404 | 58 | 61 | 1.0 | 3.0 | 0.00 | 0.00 | 0.00 | 74 | 1004.7 |
| 20260506022905 | 58 | 61 | 0.0 | 3.0 | 0.00 | 0.00 | 0.00 | 74 | 1004.7 |
| 20260506021904 | 58 | 77 | 1.0 | 3.0 | 0.00 | 0.00 | 0.00 | 73 | 1004.8 |
| 20260506021404 | 58 | 77 | 0.0 | 2.0 | 0.00 | 0.00 | 0.00 | 73 | 1004.9 |
| 20260506020904 | 58 | 77 | 1.0 | 5.0 | 0.00 | 0.00 | 0.00 | 73 | 1004.8 |
| 20260506020404 | 58 | 104 | 1.0 | 6.0 | 0.00 | 0.00 | 0.00 | 73 | 1004.7 |
| 20260506015904 | 58 | 97 | 1.0 | 3.0 | 0.00 | 0.00 | 0.00 | 72 | 1004.6 |
| 20260506015404 | 59 | 117 | 1.0 | 5.0 | 0.00 | 0.00 | 0.00 | 72 | 1004.7 |
| 20260506014904 | 59 | 97 | 1.0 | 3.0 | 0.00 | 0.00 | 0.00 | 72 | 1004.6 |
| 20260506013904 | 59 | 103 | 1.0 | 9.0 | 0.00 | 0.00 | 0.00 | 71 | 1004.7 |
| 20260506012905 | 59 | 135 | 2.0 | 5.0 | 0.00 | 0.00 | 0.00 | 71 | 1004.8 |
| 20260506012404 | 59 | 142 | 0.0 | 1.0 | 0.00 | 0.00 | 0.00 | 71 | 1004.7 |
| 20260506011904 | 59 | 141 | 2.0 | 8.0 | 0.00 | 0.00 | 0.00 | 70 | 1004.6 |
| 20260506010904 | 60 | 155 | 3.0 | 9.0 | 0.00 | 0.00 | 0.00 | 70 | 1004.4 |
| 20260506010404 | 60 | 98 | 3.0 | 12.0 | 0.00 | 0.00 | 0.00 | 70 | 1004.3 |
| 20260506005905 | 60 | 111 | 1.0 | 6.0 | 0.00 | 0.00 | 0.00 | 69 | 1004.3 |
| 20260506005404 | 60 | 117 | 1.0 | 5.0 | 0.00 | 0.00 | 0.00 | 69 | 1004.2 |
| 20260506004904 | 60 | 131 | 1.0 | 10.0 | 0.00 | 0.00 | 0.00 | 69 | 1004.2 |
| 20260506004404 | 60 | 122 | 1.0 | 5.0 | 0.00 | 0.00 | 0.00 | 68 | 1004.3 |
| 20260506003904 | 60 | 88 | 2.0 | 7.0 | 0.00 | 0.00 | 0.00 | 68 | 1004.3 |
| 20260506003404 | 61 | 124 | 1.0 | 6.0 | 0.00 | 0.00 | 0.00 | 68 | 1004.3 |
| 20260506002905 | 61 | 124 | 1.0 | 6.0 | 0.00 | 0.00 | 0.00 | 68 | 1004.3 |
| 20260506002404 | 61 | 96 | 3.0 | 8.0 | 0.00 | 0.00 | 0.00 | 68 | 1004.2 |
| 20260506001905 | 61 | 80 | 1.0 | 3.0 | 0.00 | 0.00 | 0.00 | 67 | 1004.2 |
| 20260506001404 | 61 | 112 | 2.0 | 6.0 | 0.00 | 0.00 | 0.00 | 67 | 1004.2 |
| 20260506000904 | 61 | 289 | 3.0 | 9.0 | 0.00 | 0.00 | 0.00 | 67 | 1004.2 |
| 20260506000404 | 61 | 124 | 2.0 | 5.0 | 0.00 | 0.00 | 0.00 | 67 | 1004.1 |
| 20260505235904 | 61 | 158 | 1.0 | 8.0 | 0.00 | 0.00 | 0.00 | 66 | 1004.1 |
| 20260505235404 | 61 | 139 | 4.0 | 7.0 | 0.00 | 0.00 | 0.00 | 66 | 1004.2 |
| 20260505234412 | 61 | 162 | 2.0 | 3.0 | 0.00 | 0.00 | 0.00 | 66 | 1004.1 |
| 20260505233904 | 61 | 119 | 2.0 | 7.0 | 0.00 | 0.00 | 0.00 | 65 | 1004.1 |
| 20260505233404 | 61 | 62 | 2.0 | 5.0 | 0.00 | 0.00 | 0.00 | 65 | 1004.0 |
| 20260505232912 | 62 | 49 | 1.0 | 3.0 | 0.00 | 0.00 | 0.00 | 64 | 1004.1 |
| 20260505231905 | 62 | 150 | 2.0 | 23.0 | 0.00 | 0.00 | 0.00 | 64 | 1004.2 |
| 20260505231404 | 62 | 139 | 2.0 | 6.0 | 0.00 | 0.00 | 0.00 | 64 | 1004.3 |
| 20260505230905 | 62 | 121 | 2.0 | 5.0 | 0.00 | 0.00 | 0.00 | 63 | 1004.3 |
| 20260505230404 | 62 | 95 | 1.0 | 3.0 | 0.00 | 0.00 | 0.00 | 63 | 1004.3 |
| 20260505225904 | 62 | 83 | 1.0 | 3.0 | 0.00 | 0.00 | 0.00 | 63 | 1004.3 |
| 20260505225404 | 62 | 117 | 2.0 | 13.0 | 0.00 | 0.00 | 0.00 | 63 | 1004.3 |
| 20260505224905 | 62 | 121 | 2.0 | 6.0 | 0.00 | 0.00 | 0.00 | 63 | 1004.3 |
| 20260505224404 | 62 | 78 | 3.0 | 12.0 | 0.00 | 0.00 | 0.00 | 63 | 1004.1 |
| 20260505223904 | 63 | 64 | 2.0 | 6.0 | 0.00 | 0.00 | 0.00 | 62 | 1004.2 |
| 20260505222904 | 63 | 131 | 3.0 | 7.0 | 0.00 | 0.00 | 0.00 | 62 | 1004.4 |
| 20260505221904 | 63 | 139 | 3.0 | 12.0 | 0.00 | 0.00 | 0.00 | 61 | 1004.4 |
| 20260505221404 | 63 | 37 | 3.0 | 8.0 | 0.00 | 0.00 | 0.00 | 61 | 1004.4 |
| 20260505220904 | 63 | 82 | 1.0 | 6.0 | 0.00 | 0.00 | 0.00 | 61 | 1004.5 |
| 20260505215905 | 63 | 146 | 3.0 | 9.0 | 0.00 | 0.00 | 0.00 | 61 | 1004.5 |
| 20260505215404 | 63 | 112 | 3.0 | 10.0 | 0.00 | 0.00 | 0.00 | 60 | 1004.5 |
| 20260505214904 | 64 | 66 | 2.0 | 10.0 | 0.00 | 0.00 | 0.00 | 60 | 1004.5 |
| 20260505214404 | 64 | 41 | 3.0 | 8.0 | 0.00 | 0.00 | 0.00 | 59 | 1004.5 |
| 20260505213905 | 64 | 45 | 0.0 | 3.0 | 0.00 | 0.00 | 0.00 | 59 | 1004.5 |
| 20260505213405 | 64 | 63 | 3.0 | 8.0 | 0.00 | 0.00 | 0.00 | 59 | 1004.5 |
| 20260505212904 | 64 | 128 | 2.0 | 6.0 | 0.00 | 0.00 | 0.00 | 59 | 1004.5 |
| 20260505212404 | 64 | 118 | 1.0 | 7.0 | 0.00 | 0.00 | 0.00 | 58 | 1004.5 |
| 20260505211904 | 64 | 142 | 2.0 | 7.0 | 0.00 | 0.00 | 0.00 | 58 | 1004.6 |
| 20260505211404 | 64 | 132 | 3.0 | 12.0 | 0.00 | 0.00 | 0.00 | 58 | 1004.6 |
| 20260505210904 | 64 | 127 | 4.0 | 9.0 | 0.00 | 0.00 | 0.00 | 57 | 1004.6 |
| 20260505205905 | 65 | 143 | 3.0 | 7.0 | 0.00 | 0.00 | 0.00 | 56 | 1004.7 |
| 20260505205404 | 65 | 114 | 2.0 | 8.0 | 0.00 | 0.00 | 0.00 | 56 | 1004.7 |
| 20260505204904 | 65 | 95 | 1.0 | 6.0 | 0.00 | 0.00 | 0.00 | 55 | 1004.7 |
| 20260505204404 | 65 | 107 | 3.0 | 8.0 | 0.00 | 0.00 | 0.00 | 54 | 1004.9 |
| 20260505203904 | 65 | 48 | 2.0 | 6.0 | 0.00 | 0.00 | 0.00 | 54 | 1004.9 |
| 20260505203404 | 65 | 76 | 2.0 | 6.0 | 0.00 | 0.00 | 0.00 | 53 | 1005.0 |
| 20260505202904 | 66 | 144 | 1.0 | 5.0 | 0.00 | 0.00 | 0.00 | 53 | 1004.9 |
| 20260505202404 | 66 | 80 | 1.0 | 3.0 | 0.00 | 0.00 | 0.00 | 52 | 1004.8 |
| 20260505201404 | 66 | 117 | 2.0 | 6.0 | 0.00 | 0.00 | 0.00 | 52 | 1004.9 |
| 20260505200904 | 66 | 145 | 3.0 | 7.0 | 0.00 | 0.00 | 0.00 | 51 | 1004.8 |
| 20260505200404 | 66 | 157 | 4.0 | 14.0 | 0.00 | 0.00 | 0.00 | 51 | 1004.8 |
| 20260505195904 | 66 | 177 | 5.0 | 7.0 | 0.00 | 0.00 | 0.00 | 50 | 1004.7 |
| 20260505195404 | 67 | 160 | 2.0 | 6.0 | 0.00 | 0.00 | 0.00 | 50 | 1004.8 |
| 20260505194904 | 67 | 120 | 2.0 | 12.0 | 0.00 | 0.00 | 0.00 | 49 | 1004.6 |
| 20260505194404 | 67 | 165 | 4.0 | 12.0 | 0.00 | 0.00 | 0.00 | 49 | 1004.7 |
| 20260505193404 | 67 | 148 | 3.0 | 6.0 | 0.00 | 0.00 | 0.00 | 48 | 1004.7 |
| 20260505192904 | 68 | 151 | 4.0 | 12.0 | 0.00 | 0.00 | 0.00 | 48 | 1004.7 |
| 20260505192404 | 68 | 125 | 2.0 | 7.0 | 0.00 | 0.00 | 0.00 | 48 | 1004.6 |
| 20260505191904 | 68 | 62 | 4.0 | 8.0 | 0.00 | 0.00 | 0.00 | 48 | 1004.8 |
| 20260505191404 | 68 | 154 | 2.0 | 12.0 | 0.00 | 0.00 | 0.00 | 47 | 1004.8 |
| 20260505190904 | 68 | 145 | 5.0 | 9.0 | 0.00 | 0.00 | 0.00 | 47 | 1004.8 |
| 20260505190405 | 69 | 94 | 0.0 | 7.0 | 0.00 | 0.00 | 0.00 | 47 | 1004.7 |
| 20260505185404 | 69 | 170 | 5.0 | 17.0 | 0.00 | 0.00 | 0.00 | 47 | 1004.8 |
| 20260505184404 | 70 | 158 | 2.0 | 8.0 | 0.00 | 0.00 | 0.00 | 47 | 1004.7 |
| 20260505183908 | 70 | 66 | 2.0 | 6.0 | 0.00 | 0.00 | 0.00 | 48 | 1004.6 |
| 20260505183404 | 70 | 111 | 0.0 | 3.0 | 0.00 | 0.00 | 0.00 | 47 | 1004.7 |
| 20260505182904 | 70 | 76 | 0.0 | 3.0 | 0.00 | 0.00 | 0.00 | 47 | 1004.6 |
| 20260505182404 | 71 | 151 | 0.0 | 3.0 | 0.00 | 0.00 | 0.00 | 46 | 1004.6 |
| 20260505181904 | 71 | 107 | 1.0 | 7.0 | 0.00 | 0.00 | 0.00 | 46 | 1004.5 |
| 20260505181404 | 71 | 164 | 5.0 | 12.0 | 0.00 | 0.00 | 0.00 | 46 | 1004.4 |
| 20260505180904 | 71 | 176 | 5.0 | 12.0 | 0.00 | 0.00 | 0.00 | 45 | 1004.4 |
| 20260505180404 | 72 | 24 | 2.0 | 12.0 | 0.00 | 0.00 | 0.00 | 45 | 1004.3 |
| 20260505175904 | 72 | 165 | 2.0 | 9.0 | 0.00 | 0.00 | 0.00 | 45 | 1004.4 |
| 20260505175404 | 72 | 146 | 2.0 | 9.0 | 0.00 | 0.00 | 0.00 | 44 | 1004.3 |
| 20260505174905 | 72 | 167 | 6.0 | 15.0 | 0.00 | 0.00 | 0.00 | 44 | 1004.3 |
| 20260505174404 | 73 | 143 | 3.0 | 8.0 | 0.00 | 0.00 | 0.00 | 44 | 1004.2 |
| 20260505173904 | 73 | 175 | 5.0 | 13.0 | 0.00 | 0.00 | 0.00 | 43 | 1004.2 |
| 20260505173404 | 73 | 167 | 4.0 | 10.0 | 0.00 | 0.00 | 0.00 | 42 | 1004.2 |
| 20260505172904 | 74 | 189 | 6.0 | 12.0 | 0.00 | 0.00 | 0.00 | 42 | 1004.2 |
| 20260505171404 | 75 | 173 | 2.0 | 7.0 | 0.00 | 0.00 | 0.00 | 43 | 1004.1 |
| 20260505170904 | 75 | 171 | 5.0 | 14.0 | 0.00 | 0.00 | 0.00 | 42 | 1004.1 |
| 20260505170404 | 75 | 194 | 6.0 | 16.0 | 0.00 | 0.00 | 0.00 | 42 | 1004.1 |
| 20260505165904 | 75 | 165 | 5.0 | 12.0 | 0.00 | 0.00 | 0.00 | 41 | 1004.2 |
| 20260505165404 | 76 | 183 | 8.0 | 14.0 | 0.00 | 0.00 | 0.00 | 41 | 1004.2 |
| 20260505164904 | 76 | 182 | 3.0 | 13.0 | 0.00 | 0.00 | 0.00 | 40 | 1004.0 |
| 20260505164404 | 76 | 178 | 3.0 | 12.0 | 0.00 | 0.00 | 0.00 | 40 | 1003.9 |
| 20260505163904 | 76 | 152 | 5.0 | 9.0 | 0.00 | 0.00 | 0.00 | 39 | 1003.9 |
| 20260505163404 | 76 | 191 | 5.0 | 15.0 | 0.00 | 0.00 | 0.00 | 39 | 1003.9 |
| 20260505162905 | 77 | 175 | 5.0 | 9.0 | 0.00 | 0.00 | 0.00 | 39 | 1004.0 |
| 20260505162404 | 77 | 213 | 7.0 | 14.0 | 0.00 | 0.00 | 0.00 | 38 | 1004.0 |
| 20260505161904 | 77 | 176 | 7.0 | 22.0 | 0.00 | 0.00 | 0.00 | 38 | 1004.1 |
| 20260505161405 | 77 | 160 | 4.0 | 12.0 | 0.00 | 0.00 | 0.00 | 38 | 1004.1 |
| 20260505160405 | 78 | 153 | 3.0 | 9.0 | 0.00 | 0.00 | 0.00 | 38 | 1004.1 |
| 20260505152904 | 80 | 183 | 6.0 | 18.0 | 0.00 | 0.00 | 0.00 | 36 | 1004.4 |
| 20260505152404 | 80 | 193 | 6.0 | 15.0 | 0.00 | 0.00 | 0.00 | 36 | 1004.4 |
| 20260505151904 | 80 | 46 | 4.0 | 12.0 | 0.00 | 0.00 | 0.00 | 36 | 1004.3 |
| 20260505151404 | 79 | 169 | 3.0 | 9.0 | 0.00 | 0.00 | 0.00 | 37 | 1004.5 |
| 20260505150904 | 79 | 137 | 3.0 | 9.0 | 0.00 | 0.00 | 0.00 | 37 | 1004.6 |
| 20260505150405 | 79 | 181 | 6.0 | 14.0 | 0.00 | 0.00 | 0.00 | 37 | 1004.6 |
| 20260505140405 | 81 | 196 | 10.0 | 23.0 | 0.00 | 0.00 | 0.00 | 25 | 1005.1 |
| 20260505124404 | 76 | 161 | 3.0 | 9.0 | 0.00 | 0.00 | 0.00 | 31 | 1005.8 |
| 20260505123904 | 76 | 158 | 5.0 | 12.0 | 0.00 | 0.00 | 0.00 | 32 | 1005.9 |
| 20260505123404 | 76 | 159 | 5.0 | 9.0 | 0.00 | 0.00 | 0.00 | 32 | 1006.0 |
| 20260505122904 | 76 | 158 | 5.0 | 12.0 | 0.00 | 0.00 | 0.00 | 33 | 1005.9 |
| 20260505121404 | 76 | 179 | 3.0 | 15.0 | 0.00 | 0.00 | 0.00 | 32 | 1006.1 |
| 20260505120904 | 76 | 155 | 6.0 | 15.0 | 0.00 | 0.00 | 0.00 | 31 | 1006.1 |
| 20260505120404 | 76 | 108 | 6.0 | 14.0 | 0.00 | 0.00 | 0.00 | 30 | 1006.1 |
| 20260505115404 | 77 | 194 | 6.0 | 10.0 | 0.00 | 0.00 | 0.00 | 30 | 1006.2 |
| 20260505114404 | 77 | 132 | 3.0 | 12.0 | 0.00 | 0.00 | 0.00 | 30 | 1006.1 |
| 20260505113905 | 77 | 135 | 2.0 | 5.0 | 0.00 | 0.00 | 0.00 | 31 | 1006.2 |
| 20260505113404 | 77 | 104 | 3.0 | 13.0 | 0.00 | 0.00 | 0.00 | 31 | 1006.3 |
| 20260505112904 | 77 | 205 | 5.0 | 15.0 | 0.00 | 0.00 | 0.00 | 30 | 1006.3 |
| 20260505112404 | 77 | 121 | 5.0 | 14.0 | 0.00 | 0.00 | 0.00 | 32 | 1006.3 |
| 20260505111904 | 77 | 136 | 5.0 | 20.0 | 0.00 | 0.00 | 0.00 | 32 | 1006.3 |
| 20260505111404 | 77 | 123 | 4.0 | 14.0 | 0.00 | 0.00 | 0.00 | 31 | 1006.4 |
| 20260505110904 | 77 | 128 | 3.0 | 17.0 | 0.00 | 0.00 | 0.00 | 31 | 1006.4 |
| 20260505110404 | 77 | 170 | 5.0 | 13.0 | 0.00 | 0.00 | 0.00 | 30 | 1006.4 |
| 20260505101905 | 77 | 164 | 7.0 | 14.0 | 0.00 | 0.00 | 0.00 | 30 | 1007.0 |
| 20260505101405 | 77 | 185 | 6.0 | 15.0 | 0.00 | 0.00 | 0.00 | 31 | 1006.9 |
| 20260505100904 | 77 | 149 | 3.0 | 12.0 | 0.00 | 0.00 | 0.00 | 31 | 1006.9 |
| 20260505095905 | 76 | 93 | 3.0 | 12.0 | 0.00 | 0.00 | 0.00 | 31 | 1006.9 |
| 20260505095405 | 76 | 158 | 3.0 | 10.0 | 0.00 | 0.00 | 0.00 | 32 | 1006.8 |
| 20260505094404 | 75 | 136 | 4.0 | 13.0 | 0.00 | 0.00 | 0.00 | 32 | 1007.1 |
| 20260505093904 | 75 | 193 | 3.0 | 10.0 | 0.00 | 0.00 | 0.00 | 33 | 1007.1 |
| 20260505093405 | 75 | 102 | 3.0 | 8.0 | 0.00 | 0.00 | 0.00 | 32 | 1007.1 |
| 20260505092904 | 74 | 156 | 4.0 | 13.0 | 0.00 | 0.00 | 0.00 | 33 | 1007.3 |
| 20260505092405 | 74 | 174 | 6.0 | 12.0 | 0.00 | 0.00 | 0.00 | 34 | 1007.3 |
| 20260505091905 | 74 | 151 | 4.0 | 9.0 | 0.00 | 0.00 | 0.00 | 34 | 1007.3 |
| 20260505091405 | 73 | 142 | 3.0 | 9.0 | 0.00 | 0.00 | 0.00 | 33 | 1007.4 |
| 20260505090904 | 73 | 197 | 4.0 | 12.0 | 0.00 | 0.00 | 0.00 | 34 | 1007.5 |
| 20260505090404 | 73 | 160 | 2.0 | 9.0 | 0.00 | 0.00 | 0.00 | 34 | 1007.5 |
| 20260505085904 | 73 | 164 | 4.0 | 7.0 | 0.00 | 0.00 | 0.00 | 34 | 1007.5 |
| 20260505085404 | 73 | 147 | 3.0 | 7.0 | 0.00 | 0.00 | 0.00 | 34 | 1007.4 |
| 20260505084904 | 73 | 161 | 7.0 | 17.0 | 0.00 | 0.00 | 0.00 | 33 | 1007.5 |
| 20260505084419 | 73 | 142 | 6.0 | 14.0 | 0.00 | 0.00 | 0.00 | 33 | 1007.4 |
| 20260505083904 | 73 | 159 | 4.0 | 13.0 | 0.00 | 0.00 | 0.00 | 36 | 1007.5 |
| 20260505083404 | 73 | 196 | 3.0 | 7.0 | 0.00 | 0.00 | 0.00 | 37 | 1007.5 |
| 20260505082904 | 72 | 91 | 5.0 | 10.0 | 0.00 | 0.00 | 0.00 | 36 | 1007.5 |
| 20260505081904 | 72 | 160 | 2.0 | 9.0 | 0.00 | 0.00 | 0.00 | 37 | 1007.6 |
| 20260505081404 | 72 | 186 | 3.0 | 12.0 | 0.00 | 0.00 | 0.00 | 37 | 1007.6 |
| 20260505080904 | 72 | 156 | 4.0 | 15.0 | 0.00 | 0.00 | 0.00 | 36 | 1007.6 |
| 20260505080404 | 72 | 169 | 4.0 | 12.0 | 0.00 | 0.00 | 0.00 | 36 | 1007.6 |
| 20260505075904 | 72 | 131 | 6.0 | 13.0 | 0.00 | 0.00 | 0.00 | 35 | 1007.6 |
| 20260505075405 | 72 | 174 | 6.0 | 15.0 | 0.00 | 0.00 | 0.00 | 36 | 1007.5 |
| 20260505074904 | 71 | 155 | 1.0 | 6.0 | 0.00 | 0.00 | 0.00 | 39 | 1007.5 |
| 20260505073404 | 69 | 44 | 2.0 | 6.0 | 0.00 | 0.00 | 0.00 | 42 | 1007.4 |
| 20260505072904 | 69 | 83 | 1.0 | 7.0 | 0.00 | 0.00 | 0.00 | 44 | 1007.5 |
| 20260505072404 | 68 | 56 | 4.0 | 8.0 | 0.00 | 0.00 | 0.00 | 43 | 1007.4 |
| 20260505071404 | 67 | 324 | 3.0 | 12.0 | 0.00 | 0.00 | 0.00 | 43 | 1007.6 |
| 20260505070904 | 67 | 51 | 1.0 | 8.0 | 0.00 | 0.00 | 0.00 | 44 | 1007.6 |
| 20260505070405 | 67 | 45 | 3.0 | 8.0 | 0.00 | 0.00 | 0.00 | 43 | 1007.6 |
| 20260505065904 | 67 | 42 | 6.0 | 14.0 | 0.00 | 0.00 | 0.00 | 44 | 1007.6 |